Tracking 29892 objects as of 21-Nov-2024
HD Live streaming from Space Station
objects crossing your sky now

OPS 7218 (TRANSIT 16)

Track OPS 7218 (TRANSIT 16) now!
10-day predictions
OPS 7218 (TRANSIT 16) is classified as:


NORAD ID: 2807
Int'l Code: 1967-048A
Perigee: 1,061.3 km
Apogee: 1,093.1 km
Inclination: 89.7 °
Period: 106.6 minutes
Semi major axis: 7448 km
RCS: 1.5463 m2 (large)
Launch date: May 18, 1967
Source: United States (US)
Launch site: AIR FORCE WESTERN TEST RANGE (AFWTR)
Your satellite tracking list
Your tracking list is empty




NASA's NSSDC Master Catalog

Two Line Element Set (TLE):
1 02807U 67048A   24325.62216373  .00000184  00000-0  26952-3 0  9998
2 02807  89.6757   6.6771 0021310 151.2364  15.1501 13.50599337830501
Source of the keplerian elements: AFSPC